Wind_Speed
22 22 22 19 14 11 7 4 2 2 3 5 6 2 2 3 4 4 4 3 2 3 4 4 4 2 2 3 3 8 9 5 3 1 1 5 15 18 14 15 23 23 19 19 24 24 21 20 18 18 16 14 12 11 11 10 12 15 14 11 11 11 10 8 8 7 6 6 6 7 8 8 9 8 8 8 8 10 10 10 9 9 8 8 8 9 9 8 9 9 8 9 9 9 9 9 9
21 22 21 19 13 6 3 2 2 3 3 5 3 3 5 3 2 4 5 3 4 5 4 4 3 3 4 4 2 4 8 7 6 4 3 12 17 15 12 18 23 21 19 18 23 25 22 20 17 17 15 14 12 10 10 9 12 15 15 12 12 12 11 9 8 7 6 6 6 6 8 8 8 7 7 8 9 9 9 9 9 8 8 8 7 8 8 7 8 8 8 8 8 9 9 9 8
21 21 19 16 9 5 2 2 2 3 3 5 1 4 4 4 4 5 7 7 7 5 5 4 3 3 0 2 2 2 5 7 9 6 5 15 13 13 15 18 22 20 19 17 21 24 21 21 18 17 16 14 12 10 9 9 11 14 15 13 12 12 10 9 7 7 6 6 7 7 8 8 8 8 8 9 8 8 8 8 8 7 7 7 7 7 7 6 7 7 8 8 8 8 8 8 8
20 19 17 12 4 4 2 2 3 4 4 4 1 3 3 5 8 9 8 7 5 4 4 2 2 1 1 1 1 3 6 5 9 9 6 13 13 16 18 19 22 19 19 16 19 22 21 21 18 17 16 14 12 10 10 10 11 12 14 14 11 10 9 7 7 8 7 7 8 9 8 8 9 8 8 8 7 7 8 8 7 7 7 7 7 7 6 6 7 7 7 7 7 7 7 8 7
19 19 16 9 2 2 1 2 3 3 5 3 1 2 4 7 10 9 6 6 4 2 2 2 2 1 1 1 2 2 4 4 8 11 10 13 18 22 19 21 22 19 18 16 19 20 19 21 19 18 17 15 13 11 11 11 11 12 13 13 12 10 9 8 8 8 7 7 9 9 9 9 9 8 7 7 8 7 7 7 7 7 7 7 6 6 5 5 6 5 5 5 5 6 6 6 6
17 18 15 7 2 3 1 3 4 4 6 2 2 2 5 8 10 9 6 6 4 3 2 1 1 1 2 2 3 4 2 5 8 10 13 16 22 23 20 22 20 18 17 17 19 19 19 20 20 19 17 15 13 12 11 11 12 12 11 12 12 10 9 9 8 8 8 8 9 10 9 9 9 8 8 7 7 7 7 7 7 7 7 6 6 6 5 5 5 4 4 4 4 4 4 5 5
14 11 7 4 2 2 2 4 5 4 4 4 4 3 6 8 8 8 6 5 3 2 2 2 1 0 2 4 4 5 6 8 9 10 16 20 23 22 20 21 20 18 16 17 19 19 18 20 21 19 17 15 13 12 12 12 12 11 11 12 11 10 9 9 9 8 8 8 8 10 10 9 9 8 7 7 7 7 7 7 7 7 6 6 6 6 5 5 4 4 4 3 3 3 3 3 3
12 4 2 2 2 2 3 5 6 5 2 3 5 4 5 8 7 6 5 3 3 3 2 1 1 1 2 4 3 4 9 11 13 16 21 22 22 22 21 21 19 19 17 16 18 18 17 20 22 18 17 15 13 12 12 12 11 11 11 11 10 9 9 8 11 9 8 9 7 7 9 9 9 8 7 8 7 7 7 6 7 7 6 6 6 5 5 5 4 4 3 2 2 2 2 2 2
9 3 2 3 3 3 4 5 6 7 3 4 5 4 4 5 3 6 5 3 3 3 5 3 2 1 1 4 4 5 8 13 17 19 21 21 22 22 20 20 19 19 17 16 16 16 16 20 21 18 17 15 14 13 12 12 10 10 10 10 10 9 8 8 11 11 9 9 7 6 8 8 7 7 8 8 7 7 7 7 7 6 5 5 6 5 4 5 4 4 3 2 2 1 2 2 2
6 3 3 3 3 4 5 5 5 5 2 5 6 5 4 3 1 3 5 5 5 3 5 3 2 1 2 4 5 5 9 15 19 18 19 21 22 20 17 18 20 19 17 16 16 15 16 19 20 18 17 15 14 13 12 11 10 10 9 9 10 10 10 8 11 12 10 9 9 7 7 8 6 6 9 8 7 8 7 7 7 5 6 5 5 5 4 4 4 4 4 3 3 2 2 2 2
3 2 3 3 4 4 5 5 4 3 3 5 5 6 4 3 3 2 3 5 5 3 6 2 1 2 3 4 4 7 15 16 19 19 19 20 20 18 16 17 20 20 18 16 14 14 16 19 20 19 17 15 13 13 12 11 10 10 8 8 9 10 10 9 9 12 11 9 10 9 9 9 7 7 9 8 6 8 8 7 7 6 7 6 5 5 4 5 5 4 4 4 4 4 4 3 3
2 3 3 3 4 4 5 4 4 5 3 4 4 6 3 3 3 3 3 3 5 4 6 4 1 1 3 2 2 9 16 15 19 20 19 20 18 17 15 16 19 19 17 16 14 13 15 19 20 19 17 15 13 12 12 11 10 9 9 7 6 7 10 10 9 11 12 10 10 9 9 9 8 8 8 8 7 8 9 7 7 7 8 7 7 6 6 6 5 5 5 5 5 6 5 5 5
3 3 3 4 4 4 6 5 6 7 1 2 4 6 4 4 4 4 3 3 5 4 6 6 1 1 2 3 4 8 12 15 19 20 20 19 16 15 14 13 16 18 18 16 14 13 14 18 20 19 17 16 14 13 12 11 10 9 8 7 5 5 8 11 10 11 12 11 10 10 10 9 9 10 9 8 8 9 10 9 8 7 8 8 8 7 7 7 7 6 7 6 6 7 6 6 7
3 3 3 4 4 4 5 5 5 6 2 3 5 6 4 3 2 1 2 3 4 1 3 5 2 1 1 3 5 4 9 17 21 20 19 17 15 14 13 12 14 18 18 15 14 13 13 17 20 20 18 17 16 15 14 13 11 11 9 8 7 6 7 10 11 11 12 13 12 12 12 10 10 11 10 10 9 10 10 10 9 8 8 9 9 8 8 8 8 8 8 8 7 8 8 8 7
2 3 3 3 3 5 4 4 5 5 2 4 2 4 5 3 2 2 1 1 3 3 4 5 2 0 1 4 4 5 12 21 21 19 18 16 15 14 12 12 14 16 17 15 14 14 14 15 18 20 20 19 18 17 16 15 14 14 12 10 9 9 8 9 10 11 12 15 15 14 13 12 11 11 11 11 11 10 11 11 11 11 10 10 11 9 9 9 9 9 9 9 8 9 9 9 8
2 3 3 3 4 5 4 5 5 5 3 2 2 0 4 3 3 1 1 2 2 2 2 3 2 0 5 7 7 12 18 22 21 19 19 17 15 13 11 12 13 12 14 15 14 15 14 14 17 18 19 20 19 18 18 17 17 16 15 13 11 11 11 10 10 11 11 14 17 16 15 14 13 13 13 12 13 13 13 13 13 14 13 13 13 11 10 11 11 10 10 10 9 10 10 11 11
3 3 3 4 4 5 4 5 4 3 2 2 2 2 4 3 3 1 1 1 1 3 2 2 2 1 6 9 14 19 20 21 21 20 19 17 15 13 11 11 13 11 13 15 15 16 15 15 17 17 17 18 19 18 18 18 18 18 17 15 14 15 13 11 11 12 12 13 16 18 17 16 14 14 14 13 14 15 15 15 15 15 15 15 15 15 13 13 14 13 12 11 11 12 12 13 13
3 3 5 5 5 6 5 4 3 4 5 4 4 4 5 3 5 2 2 2 2 3 4 3 3 5 10 14 18 21 21 21 21 20 18 16 15 14 12 12 13 13 14 15 16 16 17 16 17 18 16 16 17 17 17 17 17 18 18 18 17 17 15 10 10 12 13 13 15 18 18 17 16 16 15 14 14 15 15 15 15 16 17 18 17 17 17 16 16 15 14 14 14 14 15 15 15
4 3 5 5 6 4 2 4 2 3 7 4 3 2 4 1 4 4 3 5 5 4 4 5 5 6 10 13 18 20 20 21 21 20 18 16 15 15 15 15 15 15 15 16 17 18 18 18 17 18 16 15 16 17 17 16 16 16 18 19 19 19 17 13 10 11 14 14 14 17 18 17 16 15 14 14 14 14 14 14 14 16 18 19 19 19 19 19 19 17 17 17 17 17 17 17 17
5 5 5 5 7 1 1 6 3 6 9 5 3 3 2 2 2 3 3 4 6 7 5 6 7 7 10 10 15 18 19 20 20 19 18 17 16 16 16 17 18 18 18 18 18 19 19 19 19 19 17 16 17 18 17 16 15 14 16 18 18 18 17 15 13 13 14 14 14 16 17 15 14 14 14 14 15 15 15 15 15 15 17 19 20 21 21 21 21 21 20 19 20 20 20 21 21
3 6 6 7 8 3 5 7 4 5 4 2 1 4 3 3 2 2 2 3 5 6 8 9 9 10 13 11 12 16 16 17 18 18 17 17 17 17 17 18 19 19 19 19 19 20 21 21 20 21 19 18 18 18 18 17 14 13 14 15 16 17 16 15 14 14 15 15 15 16 17 15 15 15 16 16 16 16 16 16 17 17 17 18 20 22 22 22 22 22 22 22 22 22 22 22 21
4 8 8 9 9 7 5 1 5 4 3 3 2 2 3 1 2 3 3 4 3 1 3 6 8 8 14 14 12 13 12 13 15 15 16 17 18 17 17 18 19 19 19 20 21 21 22 22 21 21 21 19 19 19 19 19 17 14 14 14 16 17 17 15 14 14 15 15 16 18 17 16 17 17 16 17 17 17 17 17 18 18 17 17 17 19 22 22 21 21 21 21 20 19 19 18 17
4 10 10 11 9 9 5 4 4 5 3 4 3 1 1 1 2 5 5 7 3 5 5 4 4 4 13 16 11 11 11 11 13 15 18 18 19 19 18 18 19 20 20 21 21 21 22 24 23 22 23 22 21 21 20 20 20 18 17 16 17 19 18 17 16 16 16 16 17 18 19 19 19 19 18 18 18 18 17 16 17 17 16 16 14 15 16 18 18 19 19 19 18 16 16 15 15
8 10 10 11 10 12 7 3 3 2 4 4 3 4 2 3 5 4 5 8 5 3 6 6 6 7 12 13 10 10 11 11 13 17 20 19 21 21 19 18 19 20 21 20 20 21 23 25 25 24 24 25 25 24 22 21 21 22 20 18 18 19 19 19 18 18 17 17 19 19 19 21 21 20 20 20 19 19 19 17 17 17 16 15 15 14 14 15 16 17 18 18 18 18 17 16 16
11 11 10 9 11 11 7 2 3 2 4 4 3 5 5 6 5 4 5 5 5 2 5 7 4 5 6 8 10 9 9 11 13 16 18 19 20 21 20 19 18 20 22 21 21 20 22 25 26 26 26 26 26 26 26 23 22 24 24 22 20 20 21 20 19 19 18 18 20 20 20 22 22 22 22 22 21 21 20 19 19 18 17 17 17 17 17 17 17 16 18 19 19 19 19 19 18
10 11 9 9 12 10 5 5 4 3 4 4 4 6 6 6 5 5 7 6 6 5 3 7 6 5 4 6 9 8 9 10 11 15 17 18 18 19 20 21 19 20 22 22 22 22 22 24 26 27 27 27 26 27 28 26 24 24 25 24 23 22 22 22 21 20 20 20 21 21 22 23 24 23 22 22 22 22 21 21 22 21 20 19 19 19 19 19 19 18 19 20 20 20 20 20 20
8 10 9 10 13 11 7 7 5 4 6 5 6 7 7 6 5 5 6 7 8 8 7 6 7 6 6 6 7 8 8 10 13 14 14 15 17 18 20 21 21 20 20 22 24 23 22 24 26 27 27 26 26 26 27 28 26 25 24 24 23 23 23 23 23 23 22 23 22 22 23 24 24 24 23 22 22 23 22 23 23 22 22 21 20 20 20 21 22 21 20 21 21 21 20 20 20
8 7 8 9 11 11 10 9 5 3 5 5 6 9 8 7 7 7 6 6 6 6 8 8 7 7 7 7 7 6 6 10 15 14 12 14 17 18 20 22 23 21 21 22 23 24 23 24 26 27 27 27 27 28 27 27 27 26 25 24 25 24 24 25 25 25 25 25 24 24 25 25 25 26 25 24 22 22 23 23 23 23 23 23 22 21 21 21 22 22 21 21 21 21 21 20 20
8 5 6 8 9 10 10 9 5 4 5 4 4 7 9 9 10 9 7 7 8 7 6 6 7 7 7 7 7 6 6 10 13 14 14 17 18 19 20 22 24 23 23 23 22 24 25 25 25 26 27 28 29 28 27 27 26 26 25 25 26 25 25 26 26 27 27 27 26 27 27 27 27 27 28 26 23 22 23 24 23 24 23 23 23 22 22 22 22 22 22 21 21 21 22 22 21
7 5 6 6 7 9 9 8 8 8 7 5 3 4 7 9 11 11 9 9 9 9 8 6 5 6 7 7 6 6 7 8 10 13 17 18 18 20 20 21 23 24 23 22 23 24 25 25 25 25 27 28 29 29 28 28 27 26 26 26 26 25 26 27 27 27 27 27 28 29 29 29 29 28 28 28 25 24 24 24 25 24 24 23 22 22 23 23 23 23 22 21 22 22 24 24 24
5 6 5 5 6 8 8 9 11 10 7 8 7 6 7 8 8 10 12 13 12 11 11 9 7 6 6 7 7 7 7 8 11 14 17 18 19 20 21 20 22 23 22 23 25 25 25 25 26 26 27 28 29 30 30 29 28 28 27 27 27 27 27 27 28 28 27 27 27 29 29 29 29 29 29 28 27 26 25 25 26 25 24 23 23 23 23 23 24 24 23 22 23 23 24 25 24
3 4 6 6 7 7 7 9 12 12 8 9 10 7 6 8 8 7 7 11 13 13 11 10 10 8 7 6 6 7 6 9 13 15 17 18 19 19 20 20 21 22 22 23 25 25 25 25 26 27 28 29 30 31 30 29 29 28 28 27 27 27 28 28 28 28 28 28 28 29 30 30 30 31 30 28 28 28 28 27 27 27 26 25 25 25 25 25 24 25 25 24 24 24 24 25 25
5 6 7 7 8 7 6 9 11 11 8 11 13 7 5 6 7 9 9 10 11 11 10 10 10 10 8 6 6 7 7 8 10 13 17 20 20 20 20 20 20 22 23 22 22 24 26 25 26 27 28 30 31 31 30 30 30 29 28 28 28 27 28 29 29 28 28 28 29 29 30 31 31 31 31 31 30 29 29 29 28 27 28 28 27 26 27 27 26 25 25 26 26 26 25 25 25
6 7 7 8 9 8 5 7 9 12 12 11 13 11 9 6 6 9 10 10 11 9 8 8 8 7 7 6 5 6 6 7 7 11 17 21 21 21 20 19 20 21 22 22 22 23 25 26 26 27 27 28 29 30 30 31 30 29 29 28 29 29 28 29 30 29 29 29 30 30 30 31 32 32 32 32 32 31 29 28 28 28 28 29 29 28 28 27 27 27 27 26 26 26 27 26 25
7 7 7 8 9 9 8 6 5 11 15 13 11 11 12 10 9 10 10 8 9 8 7 6 6 6 6 6 6 6 6 6 6 10 17 20 22 22 21 19 20 21 21 22 22 22 23 24 26 27 27 27 27 28 29 29 29 29 28 28 28 29 30 30 29 30 30 31 31 31 31 31 32 33 33 33 33 32 31 30 29 28 28 29 30 30 29 28 28 28 28 27 26 27 28 27 26
6 7 8 7 7 9 10 8 7 7 9 10 11 11 11 11 11 10 11 11 10 10 7 6 6 6 6 6 6 7 7 7 7 10 14 17 20 22 23 22 21 22 21 21 22 22 23 24 25 27 28 27 27 27 28 28 28 28 28 28 28 30 32 32 31 31 31 32 32 32 32 32 33 34 34 34 34 34 33 32 31 29 29 29 31 32 32 31 30 29 29 27 26 26 27 28 26
9 9 7 8 6 6 7 8 9 4 5 8 10 12 12 13 11 9 10 12 12 13 10 9 9 8 8 7 7 8 8 7 8 11 12 13 13 14 20 22 20 21 22 22 22 24 25 25 26 27 28 28 28 28 29 30 30 29 28 30 32 33 33 33 33 34 34 34 34 33 33 33 34 35 35 35 35 35 34 33 32 31 31 31 32 34 33 32 30 29 28 27 27 26 26 27 26
14 10 7 8 7 6 7 8 8 2 4 6 6 9 12 12 11 9 9 11 11 12 12 11 11 11 9 9 10 9 7 5 6 8 10 12 10 9 15 19 19 21 22 23 24 25 26 27 27 28 28 29 31 31 32 32 33 32 31 33 33 33 32 33 35 36 36 36 35 34 34 34 34 35 35 35 36 36 35 35 34 33 33 33 33 33 33 31 31 30 28 27 29 29 27 25 25
13 9 7 8 6 6 8 10 11 3 2 3 5 7 10 10 10 10 10 11 10 10 11 11 11 11 9 10 10 9 8 7 6 7 8 12 14 13 15 18 21 23 23 24 25 26 26 27 29 29 30 31 33 34 34 34 34 34 33 32 31 30 30 32 33 34 34 35 35 35 34 34 35 35 35 35 36 37 37 36 36 35 34 34 34 33 33 32 32 31 31 29 27 27 28 26 26
10 9 7 8 7 6 6 8 11 7 3 4 5 8 8 8 11 12 11 11 11 11 13 12 10 10 9 9 9 9 9 9 8 8 8 11 15 18 19 21 25 26 25 26 27 27 28 29 30 31 32 33 34 35 36 36 34 34 33 31 28 26 26 27 28 30 31 33 35 35 36 36 36 37 37 37 37 38 38 38 37 36 35 34 34 34 34 35 34 34 33 32 28 25 26 27 27
11 11 10 9 9 9 8 8 8 8 7 5 4 8 9 8 11 13 10 10 13 14 14 14 12 11 11 10 10 9 10 9 9 9 9 10 12 18 22 24 27 27 27 28 29 30 30 31 32 32 33 34 35 35 36 36 33 31 30 28 24 23 23 24 25 28 31 32 34 36 38 38 38 38 38 39 39 40 40 39 38 37 35 34 35 36 36 36 36 35 34 34 33 30 26 24 25
9 11 13 13 11 10 10 10 7 7 8 5 3 7 10 8 12 14 11 11 15 14 14 15 14 13 13 12 12 11 10 10 9 9 9 9 11 16 21 24 25 27 29 31 32 32 31 31 32 33 33 34 34 35 35 35 34 32 30 29 27 25 24 26 29 31 33 34 36 38 38 38 39 39 39 39 40 40 41 40 39 38 37 36 36 36 36 36 36 37 36 35 36 35 28 21 23
7 8 12 14 12 10 10 10 6 5 6 3 4 7 10 7 9 11 10 12 16 14 13 15 13 13 13 12 12 12 12 11 11 11 11 11 12 13 16 21 23 25 28 31 31 31 32 32 33 33 34 35 35 35 35 35 35 34 33 33 33 32 29 31 35 35 34 35 36 36 36 36 38 40 40 40 40 41 41 41 40 40 38 37 36 36 37 37 37 36 36 36 36 35 31 26 24
6 4 6 9 12 13 12 10 7 5 5 4 2 4 8 8 7 9 9 11 14 13 12 13 12 13 13 13 13 12 13 13 11 11 12 13 13 14 18 22 26 28 29 30 29 29 31 33 34 34 33 34 35 35 34 35 35 36 35 35 34 34 33 34 35 35 34 33 33 33 34 35 36 38 40 41 41 42 41 41 41 40 40 39 37 38 39 38 37 35 35 36 35 34 34 33 28
5 3 4 5 8 10 10 9 7 5 6 6 4 4 6 9 6 7 10 12 15 14 12 11 11 11 12 12 13 13 14 13 12 12 12 12 14 18 23 26 29 31 31 30 29 28 29 30 31 32 33 33 33 33 32 34 35 36 36 34 32 33 34 34 32 31 31 32 32 33 33 34 35 37 39 41 42 42 42 42 42 42 42 41 39 39 39 37 37 36 35 36 36 36 35 34 31
6 5 4 1 1 2 4 4 5 6 6 7 8 8 7 11 8 7 9 11 13 13 11 11 12 11 11 11 11 12 12 12 11 12 12 13 16 21 25 25 26 28 29 29 29 28 28 27 28 28 30 30 31 32 32 32 35 36 35 34 33 32 33 33 31 30 29 30 32 33 33 34 35 36 38 40 42 42 43 43 43 43 43 43 41 40 39 38 37 38 37 36 37 36 35 34 33
3 4 2 1 2 2 1 1 1 4 7 9 13 14 11 12 9 8 9 9 10 10 9 10 11 11 11 10 10 9 10 10 10 11 12 13 16 20 22 22 23 25 26 28 29 29 28 27 26 26 26 27 28 30 32 33 34 36 36 34 34 34 34 33 32 31 31 30 31 33 34 35 35 36 38 39 41 42 43 44 44 44 44 43 42 42 41 40 39 39 37 36 36 36 35 34 34
5 4 2 0 2 1 2 1 2 4 7 10 15 16 14 13 10 5 6 9 10 9 8 8 9 10 10 9 8 8 8 9 10 10 10 9 11 15 17 19 22 23 23 24 26 27 26 26 25 25 25 25 25 27 30 31 32 34 35 35 36 37 36 35 33 33 32 32 32 33 33 34 35 36 36 38 40 41 42 43 44 44 44 43 43 44 43 42 40 38 37 36 35 36 36 35 33
5 4 3 2 2 2 2 3 4 5 7 7 10 12 12 13 13 8 8 10 8 7 7 8 9 8 8 8 8 7 7 8 9 9 9 8 8 9 11 15 18 20 22 23 23 23 23 23 24 24 25 26 26 26 27 29 30 32 34 35 36 37 36 35 34 33 33 33 33 32 32 32 33 34 35 37 39 41 43 43 44 45 46 46 46 45 44 43 40 38 37 37 36 36 36 36 35
7 6 5 5 4 4 5 5 5 6 8 7 8 9 7 7 10 11 15 15 11 12 14 12 11 10 8 7 7 7 7 7 7 8 8 8 8 8 9 12 15 17 21 22 22 22 22 22 21 21 23 24 25 25 26 28 30 31 33 34 35 35 35 35 35 34 33 33 32 32 32 32 32 33 34 37 38 40 42 43 45 46 46 46 46 44 43 42 40 39 37 36 37 37 36 36 36
7 6 5 6 5 5 6 5 6 6 7 7 8 7 5 5 6 8 13 15 14 16 17 15 14 14 12 9 7 7 7 7 7 7 8 8 9 9 10 13 14 16 18 19 20 20 21 21 21 21 21 22 23 23 25 26 28 30 31 33 33 33 34 34 35 35 34 34 34 33 34 34 34 34 35 36 37 38 40 42 44 44 45 44 44 43 42 41 40 39 38 36 37 37 37 36 36
4 4 4 6 7 7 6 6 7 4 5 5 5 5 4 3 7 6 6 8 10 13 14 14 15 16 14 12 11 9 7 7 7 6 7 8 9 10 12 13 14 15 16 16 17 17 18 19 19 19 19 20 21 21 22 24 25 27 28 29 30 31 32 33 33 34 34 34 34 34 35 35 35 35 35 35 36 37 39 40 42 43 43 42 42 42 41 40 40 39 39 37 36 36 36 37 36
2 3 5 6 5 6 6 8 7 5 8 6 4 6 5 3 9 8 7 10 8 8 10 11 12 13 13 13 12 10 8 8 8 7 7 8 8 10 13 13 13 13 14 15 16 16 15 15 15 17 17 18 19 20 21 21 22 24 26 27 28 29 30 32 32 33 33 33 33 33 34 34 34 34 34 34 35 36 37 38 40 41 42 41 41 41 41 40 39 39 39 38 37 36 35 37 36
4 3 6 4 1 1 2 5 5 6 9 7 7 11 8 5 6 5 9 13 12 11 12 11 9 9 10 11 10 10 9 8 9 8 8 8 7 8 10 11 11 12 13 13 13 12 12 13 13 15 16 18 20 20 19 19 19 21 23 25 26 28 29 31 31 32 33 32 32 32 33 33 34 34 34 34 34 34 35 37 39 40 40 41 40 40 40 40 39 38 38 38 38 37 35 35 35
3 0 3 4 2 2 3 3 4 7 8 6 9 12 9 7 7 4 7 11 10 10 10 10 9 8 8 8 8 9 8 8 8 8 8 7 6 7 8 9 8 6 6 7 8 9 9 11 12 14 17 18 20 20 19 19 19 20 22 24 25 26 27 29 30 31 31 31 32 32 32 33 33 33 34 34 34 33 34 35 37 39 39 39 39 39 39 39 39 39 38 38 38 37 36 34 33
1 3 3 2 2 4 4 2 3 6 8 7 8 9 6 6 7 9 11 11 10 10 9 9 8 7 8 8 8 8 7 6 6 6 5 2 2 3 4 5 7 8 8 8 9 10 10 11 13 15 17 18 19 19 19 19 19 20 21 23 24 25 26 27 28 29 30 31 32 32 32 33 33 33 33 33 33 34 34 34 35 37 37 37 37 37 37 38 39 39 40 39 37 36 35 35 34
1 2 4 3 1 2 2 2 3 4 5 5 7 8 5 3 5 9 12 12 11 10 8 7 5 5 5 4 3 1 2 3 3 3 5 6 6 8 11 11 10 8 7 8 10 11 12 12 13 14 16 16 17 17 17 18 19 19 20 21 22 23 23 25 26 27 29 30 31 32 33 33 33 33 32 32 33 34 34 35 35 35 36 36 36 37 38 38 39 40 39 38 37 36 36 36 34
3 5 6 5 4 3 4 5 5 4 4 4 7 8 5 1 2 4 6 6 5 5 4 4 5 7 7 7 6 7 7 7 7 7 7 7 6 7 11 11 9 7 6 7 9 11 12 13 14 14 15 15 15 14 14 16 17 18 19 20 20 21 21 22 24 26 28 30 31 32 32 31 32 32 32 32 33 33 34 34 34 35 35 36 37 38 39 39 39 38 38 37 37 36 37 36 34
Wind_Direction
323 325 324 320 303 295 277 229 255 239 211 254 252 210 85 58 103 128 122 130 187 102 74 71 66 42 66 14 25 62 44 35 47 56 97 136 148 162 176 150 139 145 148 159 168 166 164 165 165 167 164 164 162 163 168 174 177 173 166 163 164 158 154 152 147 144 133 131 125 125 130 130 130 126 118 117 117 115 112 110 112 111 111 116 114 103 99 93 85 81 73 71 71 69 75 83 87
322 323 324 321 294 273 283 204 250 258 225 253 248 109 109 102 129 133 129 124 83 92 89 85 74 54 46 353 328 71 66 56 79 82 105 136 146 165 166 143 141 146 149 159 170 166 166 167 168 169 166 166 165 162 166 176 179 179 175 169 170 171 170 165 155 153 150 146 140 137 140 137 135 133 125 123 126 118 113 118 117 115 117 119 119 110 105 96 84 80 81 80 77 72 75 82 85
321 321 319 321 293 221 282 255 243 276 258 269 323 101 133 129 116 89 87 84 75 95 88 83 92 83 132 263 309 83 99 79 99 94 117 146 150 165 165 148 143 147 151 161 169 168 169 169 170 170 168 167 166 162 160 164 171 177 181 178 178 184 188 178 163 158 158 155 152 146 142 142 141 136 130 129 130 121 116 124 123 120 122 123 123 116 107 96 86 85 90 87 80 75 75 80 84
320 320 304 303 306 215 259 245 229 272 269 282 60 121 130 105 98 80 78 85 83 110 106 132 130 52 283 256 6 85 105 89 114 113 133 165 160 158 162 148 146 150 152 159 166 169 173 174 173 171 171 170 166 162 156 150 154 167 179 184 185 184 177 162 151 153 153 153 152 147 142 144 146 140 136 136 133 128 126 130 129 126 127 130 131 121 112 103 98 97 97 91 86 81 79 82 81
321 322 297 270 311 272 257 261 246 246 259 286 79 123 87 87 96 91 90 94 96 125 138 183 132 51 16 5 324 87 112 102 109 120 143 165 153 154 156 145 149 153 154 160 163 170 178 179 177 175 174 171 168 162 155 146 146 159 172 181 178 165 153 144 149 153 151 153 158 156 149 149 151 147 143 141 137 136 139 137 131 131 132 132 138 136 126 115 112 109 103 94 93 88 87 88 87
323 325 301 246 248 308 273 272 264 239 260 309 80 60 64 85 98 103 102 91 78 52 28 269 111 123 136 73 49 52 77 127 117 124 137 142 146 153 152 147 152 152 156 163 164 172 181 183 180 177 175 170 168 160 156 148 147 160 166 169 166 157 154 154 156 157 155 157 165 166 158 154 153 153 150 147 145 142 147 145 140 140 137 138 146 149 141 131 129 118 108 104 100 96 100 98 102
319 326 305 231 249 278 238 264 264 262 298 360 77 71 64 90 100 113 117 108 95 68 355 321 51 156 145 115 84 50 48 104 124 131 134 136 145 151 148 151 153 153 160 162 165 176 183 184 180 177 175 169 166 162 158 151 150 163 165 161 162 167 168 168 165 160 159 161 169 174 166 158 152 155 157 158 158 153 155 152 150 152 148 150 153 154 152 147 145 136 124 124 116 113 129 119 121
304 302 303 279 281 222 230 258 258 262 301 26 71 70 67 99 114 131 139 148 148 160 185 314 320 297 161 148 118 78 67 91 113 126 135 139 147 150 150 153 152 156 161 160 169 180 182 181 180 177 174 170 166 166 161 157 155 159 165 165 166 170 172 177 172 165 165 167 178 179 162 158 159 158 163 166 169 163 163 159 155 158 160 160 155 156 163 162 162 159 150 148 141 144 162 150 143
294 240 260 277 270 254 243 243 256 260 203 121 95 83 70 92 121 143 155 148 135 175 166 175 217 266 203 135 103 104 92 103 117 125 135 142 149 153 154 156 154 156 158 162 172 180 180 179 180 177 175 172 168 171 167 163 161 158 165 170 169 169 172 180 173 166 168 173 181 176 159 169 174 168 171 172 175 173 170 168 163 164 170 169 160 165 174 174 175 177 180 183 184 191 190 187 188
292 219 256 270 261 265 256 239 246 259 177 112 107 116 103 107 152 164 176 143 130 171 127 127 204 267 302 111 105 122 122 121 124 128 137 143 149 154 157 158 159 158 158 164 174 180 178 179 182 180 178 176 172 176 176 170 167 164 167 170 175 182 181 179 178 173 170 176 180 179 176 186 190 182 178 169 169 180 179 173 174 179 178 177 174 181 188 187 190 193 199 206 215 222 219 216 221
289 240 246 264 266 252 257 247 243 251 130 110 113 105 102 138 164 192 200 135 128 150 106 100 225 251 271 103 90 118 130 135 130 133 141 145 150 155 159 160 158 159 160 164 175 179 179 181 184 184 181 181 181 182 184 182 175 171 171 173 179 187 184 180 189 181 173 180 184 185 185 191 195 186 181 176 177 185 186 181 188 191 183 186 192 199 203 202 207 208 216 220 223 235 242 238 241
266 282 252 236 256 246 260 272 302 297 112 130 132 108 127 149 164 186 196 141 134 156 136 169 189 232 233 116 102 129 136 143 135 138 144 147 153 156 162 159 153 159 164 163 168 172 180 184 185 186 184 190 193 190 194 194 186 180 177 174 175 185 183 182 195 188 181 184 189 193 193 202 198 188 192 195 203 199 194 194 198 194 190 197 202 207 209 210 218 218 224 230 235 244 245 246 252
247 276 272 248 258 268 285 295 308 298 344 135 130 119 155 157 192 185 175 160 145 177 158 167 137 57 226 96 127 142 142 144 138 141 144 148 155 157 164 160 152 161 167 165 168 171 179 185 188 188 188 196 200 198 201 202 199 195 191 185 181 195 191 190 196 195 192 187 193 201 200 210 200 195 208 209 216 205 196 199 204 207 201 201 207 212 213 215 223 223 224 235 247 248 250 258 262
268 273 278 263 260 269 278 282 296 291 329 44 106 132 156 154 202 151 165 173 139 152 118 128 109 113 212 108 145 157 140 141 140 142 144 149 153 156 163 162 157 163 169 168 172 175 176 183 190 191 193 199 203 205 205 207 210 206 210 212 209 218 211 206 207 204 201 194 197 206 204 211 204 200 210 214 220 211 203 205 209 219 213 206 212 218 221 223 226 226 230 238 242 245 258 265 261
270 283 277 266 265 257 251 264 283 275 304 32 58 142 145 103 55 41 336 147 104 89 88 96 84 61 93 96 141 143 138 140 141 142 143 147 150 157 164 164 162 161 167 170 176 180 177 182 190 195 199 201 204 208 207 211 214 211 212 216 218 224 222 218 222 218 211 205 203 208 208 210 210 207 211 216 222 220 219 220 218 221 220 216 219 221 226 229 230 232 239 245 242 243 257 263 259
208 266 268 248 248 243 230 239 251 262 280 353 340 11 150 118 97 168 352 38 93 120 99 106 122 18 76 83 110 124 135 141 143 142 141 145 149 160 164 164 169 164 165 175 184 185 185 185 187 195 201 202 206 210 211 215 217 216 214 216 219 226 231 222 226 228 217 213 209 210 211 210 213 213 216 220 224 228 228 229 229 227 225 224 227 226 224 225 227 232 240 247 246 247 254 258 262
217 228 253 245 236 234 224 232 228 235 257 214 221 246 212 155 133 184 22 356 147 142 170 134 142 147 96 109 124 127 137 143 144 144 143 147 150 159 164 166 179 179 170 182 192 190 193 191 188 196 200 202 206 210 214 217 219 218 217 220 218 226 241 226 220 230 221 217 213 213 215 214 216 217 223 228 229 234 236 234 233 231 229 227 231 231 227 226 227 232 238 241 245 247 248 254 265
237 212 242 238 231 235 227 235 230 226 230 199 168 220 247 185 157 145 99 233 232 159 170 141 115 99 110 126 130 133 142 145 150 150 149 155 156 158 170 180 189 191 179 186 197 195 198 196 194 197 201 202 202 208 214 216 218 218 218 221 219 227 248 239 220 227 226 223 217 215 218 220 221 222 229 236 238 240 241 239 235 235 234 232 234 234 233 231 232 236 239 239 243 246 249 257 267
236 234 239 233 239 234 254 283 316 263 250 221 146 192 266 235 141 140 157 205 198 197 190 164 162 121 119 133 135 140 149 152 158 161 159 165 169 167 174 184 191 195 187 190 200 200 201 202 200 198 201 203 201 206 211 216 219 216 217 220 221 228 245 248 232 226 228 227 221 218 221 226 226 223 226 237 246 243 241 241 241 241 238 236 237 238 238 237 239 241 242 242 244 248 253 258 264
234 241 243 242 247 212 242 255 232 227 238 232 175 133 281 313 92 136 187 218 197 201 202 178 189 163 144 147 146 150 157 160 166 169 169 171 177 178 177 182 189 194 192 193 201 203 202 203 203 203 203 201 201 205 207 212 219 219 218 221 223 227 237 242 235 229 228 226 220 222 227 226 224 224 225 232 239 236 235 239 244 246 244 242 241 241 242 242 242 242 243 245 247 250 253 257 263
248 234 241 253 257 243 217 229 241 237 236 296 41 68 321 266 149 177 203 244 219 208 210 189 194 182 159 158 159 160 161 165 174 176 176 178 182 186 184 185 189 193 193 193 198 202 201 202 204 205 205 203 202 204 205 207 213 222 222 221 222 225 232 232 228 225 225 224 219 223 230 225 219 224 226 229 233 234 237 241 246 249 250 250 247 245 245 243 243 242 243 245 249 253 256 261 263
282 258 250 258 265 265 242 115 8 337 15 321 282 74 297 255 153 228 223 247 243 187 245 183 185 188 163 159 161 164 166 168 178 182 182 184 187 191 190 187 188 189 191 192 195 199 199 200 202 203 204 205 206 206 208 208 209 217 218 217 217 223 230 226 221 221 221 224 222 220 224 223 221 224 225 228 233 237 238 241 245 247 248 250 246 244 243 242 244 244 243 245 248 251 253 256 255
237 270 264 261 269 271 269 75 30 333 334 268 274 27 334 36 237 231 216 240 240 67 34 58 58 83 138 150 158 166 172 174 182 187 188 188 190 194 192 187 185 186 189 193 195 197 198 198 199 201 202 205 207 207 208 210 211 212 212 214 216 219 223 221 220 222 223 225 225 221 221 223 223 224 225 227 232 232 232 235 239 242 246 246 242 238 237 237 239 240 240 243 245 246 247 246 245
204 250 260 262 265 261 255 127 120 308 291 271 324 352 304 246 254 239 216 236 243 90 76 71 46 71 122 144 162 175 176 179 187 191 192 193 193 195 195 190 187 185 188 193 195 196 198 198 198 199 200 202 205 206 205 209 213 214 213 213 214 215 218 220 221 224 227 228 227 224 221 224 225 226 227 228 230 230 232 233 233 236 240 240 238 238 238 233 231 234 237 240 244 247 248 245 243
228 242 254 264 268 262 256 221 161 171 265 285 311 300 268 254 276 290 264 255 268 243 118 112 100 106 141 157 165 182 184 182 189 191 196 200 199 197 196 196 192 186 186 192 194 195 197 197 198 199 199 200 203 204 205 207 212 215 215 214 214 215 217 220 223 225 227 227 228 227 224 224 224 225 228 229 229 230 233 233 230 230 231 232 231 233 235 233 232 232 233 236 240 244 244 243 245
235 241 254 261 267 265 252 256 252 223 240 249 258 261 256 259 278 276 259 257 271 268 176 142 143 157 183 175 171 186 188 186 189 190 195 200 201 200 198 199 198 191 189 192 194 194 197 196 197 200 201 201 201 202 203 205 209 213 216 215 214 216 218 220 221 224 226 225 225 228 230 227 222 222 226 228 230 230 231 231 230 229 228 228 228 228 228 228 230 229 229 232 234 237 239 241 245
240 236 253 262 265 262 240 232 235 253 252 234 246 256 253 252 254 249 236 232 235 241 227 171 157 181 195 191 187 189 190 191 190 189 191 193 199 201 199 200 202 199 193 192 194 194 195 196 198 200 201 201 201 202 203 204 207 211 215 215 212 215 219 220 220 220 224 226 224 226 230 228 224 222 223 227 231 231 230 231 232 230 227 226 227 229 228 227 227 227 229 232 232 235 238 240 242
269 252 263 271 278 272 254 239 215 236 254 231 248 260 256 248 242 242 242 255 256 239 229 198 178 188 196 206 201 193 198 195 188 188 188 189 198 201 200 201 202 202 198 195 195 194 195 197 199 200 201 202 202 204 205 205 206 208 212 215 215 215 217 220 221 219 221 225 225 224 225 226 227 226 222 224 229 230 228 229 230 229 226 225 226 227 229 230 229 227 229 232 234 236 237 238 240
273 283 276 271 282 273 256 251 233 228 238 225 260 267 251 241 238 240 237 254 274 276 259 226 203 194 193 205 203 196 202 196 186 188 195 195 198 201 204 204 202 203 203 200 197 197 197 198 199 201 202 203 204 205 206 207 207 208 211 214 218 216 215 219 221 220 219 221 224 225 226 228 230 229 225 222 224 229 229 228 228 227 227 227 229 227 227 230 230 230 230 231 235 237 237 238 238
248 257 267 266 270 258 244 245 239 232 227 209 233 267 245 239 232 226 224 229 240 248 251 252 240 215 198 198 198 194 194 198 194 192 197 199 200 202 206 207 205 205 204 201 199 200 200 198 199 200 201 205 207 207 206 208 208 209 212 214 218 218 217 218 219 220 220 220 222 225 227 228 230 230 228 225 223 227 230 228 228 228 228 228 228 227 227 229 229 230 230 230 235 240 241 240 241
239 244 245 243 250 248 229 227 230 229 216 189 209 248 244 247 242 219 212 213 217 227 229 226 236 240 215 194 192 194 187 196 204 200 196 200 204 204 206 206 205 205 203 202 202 202 201 199 199 200 202 206 209 210 210 211 211 210 212 214 217 219 219 221 221 222 222 221 222 226 228 227 228 229 229 228 224 225 228 228 228 227 228 227 226 225 226 227 228 229 230 232 237 241 243 242 243
206 228 236 225 235 250 236 228 227 224 213 190 205 243 242 240 259 258 237 216 210 219 225 218 218 229 229 209 194 195 192 195 202 202 198 202 207 207 208 206 203 203 202 204 205 204 203 203 202 202 204 205 209 213 213 215 216 214 213 214 217 219 221 222 224 225 224 223 224 227 230 228 227 227 227 228 225 223 225 227 228 227 227 226 226 227 227 228 229 230 232 233 236 238 240 242 243
197 215 234 228 231 244 235 229 228 225 220 202 205 228 245 226 234 249 258 249 230 220 222 222 216 218 225 224 208 198 196 194 197 200 198 201 207 211 210 205 203 204 204 204 204 204 204 205 207 206 206 207 209 213 214 215 217 218 216 215 216 218 222 224 224 224 224 225 225 226 229 230 229 227 226 226 225 224 223 225 227 227 227 226 226 227 228 230 230 230 232 233 234 236 238 241 242
208 212 230 238 236 244 237 217 214 219 223 213 209 224 241 252 257 250 247 249 249 237 226 229 225 222 226 230 231 223 207 198 193 196 197 198 205 213 214 208 205 204 205 205 205 206 206 207 210 211 211 211 210 212 215 216 218 219 219 219 218 218 221 225 225 225 226 227 227 226 228 231 232 229 227 225 225 225 224 224 225 226 228 227 225 226 227 229 231 231 232 232 232 234 236 238 240
214 210 220 235 232 245 253 244 224 217 219 215 213 227 237 244 256 261 264 261 257 247 230 233 239 233 233 233 237 242 235 221 203 197 199 198 202 210 213 209 205 204 204 205 205 208 209 209 213 215 214 213 213 213 215 217 217 218 220 221 222 221 221 223 224 226 227 228 229 228 227 230 233 231 228 226 225 225 225 224 223 224 226 227 225 224 224 226 228 228 229 231 231 233 235 236 238
242 242 236 240 231 237 243 252 264 239 226 223 221 235 243 241 238 238 251 256 258 255 235 226 241 244 242 236 233 234 238 239 220 213 216 208 203 206 208 207 205 202 202 203 204 207 210 211 212 215 216 215 213 212 213 215 214 215 218 218 220 223 223 222 223 224 226 228 229 229 228 229 232 232 230 227 226 225 224 224 223 222 224 226 224 223 223 223 224 225 227 228 229 232 235 235 236
246 264 268 272 264 257 251 249 252 215 214 237 231 240 246 247 248 239 241 242 242 249 242 230 231 235 241 242 240 233 230 238 226 223 232 229 218 206 200 200 199 199 201 203 204 208 212 212 211 214 217 215 211 210 211 211 211 212 214 216 220 223 223 222 222 223 224 227 228 229 228 229 230 230 230 228 225 224 224 224 224 222 221 223 224 224 223 223 223 224 226 227 227 228 231 233 233
229 244 258 271 270 276 290 291 285 202 186 250 257 259 257 251 254 255 260 256 244 242 242 237 233 228 228 235 243 241 232 236 227 220 227 234 236 211 191 190 192 196 202 206 209 213 215 215 213 215 217 215 214 214 213 212 214 215 216 220 223 224 225 224 224 225 226 227 228 228 229 228 227 228 229 228 225 224 224 223 224 223 221 221 224 225 225 224 224 224 223 224 225 226 229 231 228
227 233 237 251 254 268 285 290 292 301 142 272 288 278 269 264 262 256 258 264 261 254 248 244 241 236 226 222 234 238 234 234 229 224 223 225 228 218 201 199 204 207 210 214 217 218 217 217 216 216 217 216 218 217 215 216 219 220 221 224 226 226 227 228 230 230 230 230 230 229 229 229 227 227 227 227 225 225 225 224 224 224 222 221 221 223 224 223 224 223 221 221 221 223 227 230 225
227 227 228 240 237 244 263 265 275 284 262 267 281 278 269 265 266 257 251 258 263 260 256 251 246 245 238 226 226 227 229 229 224 224 223 220 220 218 214 214 218 221 220 219 221 220 217 218 219 218 217 218 219 219 219 221 222 223 224 226 230 231 232 234 234 233 233 232 232 231 230 230 228 227 226 225 225 226 225 225 225 223 223 222 220 221 222 222 222 221 219 218 218 217 222 226 223
229 226 223 233 229 222 232 246 264 277 268 264 286 285 270 249 255 258 253 252 252 248 248 248 244 244 246 240 234 228 228 230 225 222 222 220 218 219 221 221 221 220 221 222 223 222 220 220 221 221 220 219 221 222 223 221 219 219 219 220 225 228 229 228 226 228 229 230 232 233 233 231 229 228 226 225 226 226 226 226 225 223 222 221 220 221 221 222 222 221 220 218 218 217 218 222 221
232 226 222 229 232 228 230 236 246 260 255 226 200 264 267 238 238 249 246 242 244 241 238 239 238 236 239 240 237 234 234 236 236 233 228 227 225 223 225 224 221 218 222 226 228 227 225 225 226 224 222 222 222 225 226 221 215 214 212 208 210 212 215 216 218 223 225 226 231 234 234 232 229 229 228 226 227 227 226 226 225 224 223 222 221 221 222 222 222 223 221 219 220 221 220 219 220
233 220 218 227 236 239 237 234 227 238 254 222 168 239 265 253 231 238 238 237 240 237 234 236 235 233 232 233 233 230 233 236 238 239 237 237 235 232 232 231 228 225 227 231 232 230 229 229 230 228 225 225 225 226 226 221 216 215 213 210 210 210 211 217 222 226 228 229 233 234 233 233 231 230 229 228 227 227 227 227 226 225 224 223 221 221 223 223 223 223 222 221 222 222 219 220 223
241 210 192 216 229 235 237 235 229 229 263 283 160 213 268 265 237 240 246 250 251 243 236 235 232 232 230 228 226 222 224 227 230 235 235 237 238 237 239 240 240 241 240 239 236 233 232 233 234 232 229 229 229 228 225 221 217 217 216 215 215 215 218 224 227 229 230 231 233 233 234 234 233 232 230 229 228 228 228 227 227 226 225 224 222 221 223 224 223 223 222 222 222 222 220 221 225
233 136 132 194 219 232 238 237 240 237 247 255 211 175 265 263 236 236 243 249 258 257 250 246 241 236 231 226 223 218 218 218 221 229 231 232 234 236 238 240 244 246 247 246 244 240 238 238 239 237 235 233 233 231 228 224 221 220 219 218 220 222 226 231 233 233 232 232 232 233 234 234 234 234 232 231 230 228 228 228 227 226 226 225 223 223 224 223 223 222 221 221 220 221 221 222 225
209 131 119 193 161 193 238 234 233 237 236 237 215 189 234 263 245 228 233 234 247 257 257 255 251 246 241 233 226 221 218 213 215 226 231 229 230 234 239 241 243 245 247 248 249 247 243 242 243 241 239 237 236 234 231 227 225 223 221 220 222 226 229 233 235 235 233 232 232 232 232 232 232 232 232 232 231 229 229 228 227 227 228 227 225 224 224 223 223 222 222 222 220 219 220 221 224
147 89 92 350 23 62 13 27 162 236 238 232 224 205 215 258 251 220 236 238 236 248 253 249 246 243 241 236 228 222 214 207 209 221 231 234 234 237 239 241 243 244 245 245 246 247 246 245 245 245 245 243 240 237 234 231 227 225 223 223 225 228 231 233 233 234 233 232 231 231 231 231 230 230 231 230 230 230 229 228 228 228 229 228 226 226 225 224 223 223 222 221 221 220 220 221 223
106 78 123 65 321 355 4 42 149 231 240 225 225 216 213 245 251 215 239 242 225 230 240 243 243 237 236 231 225 221 211 204 207 216 228 234 237 239 238 239 242 245 246 245 244 245 245 246 247 248 250 249 246 243 239 235 230 227 226 226 228 231 233 233 233 234 234 233 233 233 232 231 230 229 228 228 228 229 228 228 228 228 228 227 227 227 226 225 224 223 221 220 220 221 221 221 222
143 141 162 183 217 204 215 212 202 230 244 226 213 209 213 242 254 244 248 249 237 244 250 248 251 247 239 232 227 225 213 208 208 211 218 222 230 236 232 234 238 243 247 248 248 247 246 246 247 248 250 251 251 248 245 242 237 233 231 231 232 235 237 238 239 239 239 238 237 236 234 232 230 228 226 226 227 228 227 226 227 227 227 227 228 227 226 226 224 222 220 220 220 220 221 221 222
188 172 170 195 202 219 224 221 231 237 244 234 195 196 217 247 252 237 239 246 250 260 260 256 261 265 257 242 234 237 228 217 210 206 212 215 222 231 230 232 235 238 243 247 248 249 248 248 248 248 251 253 253 252 251 249 244 241 239 238 238 239 241 243 244 245 244 244 242 241 239 237 234 232 230 229 230 229 228 228 228 228 228 228 227 226 226 225 223 222 221 220 220 221 222 222 224
209 190 189 207 204 229 233 222 236 243 253 234 190 194 210 214 236 222 222 229 226 237 246 246 250 254 255 253 246 247 242 227 213 208 214 219 224 232 233 233 235 238 242 245 247 247 246 247 249 249 251 253 255 256 255 252 249 247 245 244 243 243 244 246 247 248 247 246 246 244 243 242 240 238 236 234 233 232 230 230 230 230 230 229 228 226 225 224 223 222 221 221 221 222 222 223 225
231 185 201 221 217 232 250 249 245 260 281 244 194 223 224 223 267 249 220 232 219 223 235 232 234 238 241 248 247 242 237 232 229 223 226 228 228 234 238 238 239 242 246 249 249 247 244 246 249 252 255 258 260 261 258 256 254 252 250 249 248 247 247 247 249 250 250 249 248 247 246 245 243 243 241 240 238 235 233 231 230 230 230 230 229 227 225 223 222 221 221 221 221 221 221 223 224
203 182 213 222 224 232 248 264 266 273 271 249 212 251 258 273 274 252 244 268 258 239 241 231 226 225 227 235 240 237 228 227 233 231 229 228 227 235 240 239 239 244 251 254 254 252 252 254 258 261 262 264 266 267 265 263 261 258 257 255 253 251 250 250 251 252 253 253 252 251 250 248 247 246 245 244 242 239 236 233 232 231 230 229 229 228 226 224 222 221 220 220 220 220 222 223 224
197 208 218 210 307 319 226 255 255 244 252 245 228 244 246 246 256 222 226 251 253 246 248 246 236 224 224 230 233 231 224 223 228 229 233 232 228 233 239 242 247 253 260 264 267 269 269 269 269 268 268 269 272 274 273 270 267 264 262 260 258 257 255 254 254 255 256 256 255 254 253 252 250 249 247 246 244 241 239 236 234 232 231 229 228 226 225 223 221 220 220 221 222 222 223 225 226
211 257 242 224 257 229 201 234 242 236 249 251 239 244 239 233 250 253 233 242 251 249 248 250 245 233 231 231 228 228 224 223 222 222 230 231 231 242 251 261 275 291 297 299 297 291 281 275 274 273 273 276 279 281 280 277 273 268 266 265 264 262 260 259 258 258 258 257 257 256 255 254 253 252 250 248 246 243 241 239 236 233 230 228 225 224 223 221 220 220 221 222 223 223 223 225 226
184 35 327 286 263 215 208 232 245 241 250 254 249 246 232 218 233 253 257 261 272 277 277 269 257 247 240 224 216 221 225 229 225 221 229 242 284 309 337 355 11 17 2 344 324 304 293 287 285 282 283 285 287 287 286 283 279 274 270 269 268 267 265 264 262 260 259 259 259 258 257 256 256 255 253 250 248 246 244 242 239 234 229 225 223 221 221 220 220 220 221 222 223 222 222 225 226
208 238 246 242 247 267 287 268 228 235 244 248 253 248 232 198 204 228 245 254 259 266 275 279 294 313 303 282 257 257 44 31 32 42 38 36 27 22 27 22 13 1 340 328 318 307 301 297 294 293 292 292 294 296 296 292 287 282 276 273 273 272 270 269 266 263 261 260 260 258 258 258 257 256 255 253 251 249 247 245 240 234 228 224 221 220 220 220 220 220 221 222 222 221 222 224 226
190 222 229 229 230 243 263 245 212 212 229 234 255 256 244 266 295 263 258 272 296 313 325 338 353 5 8 12 23 36 46 47 48 49 45 40 32 20 12 3 353 336 311 303 303 301 298 296 295 293 289 287 291 298 302 300 294 287 280 278 278 278 276 272 269 266 264 262 262 261 260 260 259 258 258 256 254 251 248 243 238 232 228 224 223 222 221 219 219 219 219 220 221 221 222 224 225
Height
784 784 781 782 779 780 780 780 798 794 793 806 793 786 782 771 771 776 780 780 779 775 770 772 771 773 778 783 783 783 786 790 796 803 810 800 793 798 797 798 799 801 805 806 808 809 811 812 814 815 817 818 820 820 821 822 823 824 826 827 827 829 829 830 831 832 833 833 834 834 835 836 836 837 837 838 838 838 839 839 840 840 841 841 841 841 842 842 842 842 842 842 842 842 842 842 843
784 783 780 781 777 783 783 778 803 801 798 808 788 781 780 770 773 777 780 779 779 774 769 771 772 773 775 776 776 781 789 787 786 792 796 793 795 798 797 799 799 802 805 806 808 809 811 812 814 816 817 818 820 821 821 822 823 824 825 826 827 828 829 830 831 832 833 833 834 835 836 836 837 837 837 838 838 839 839 840 840 841 841 842 842 842 842 842 842 842 843 843 843 843 843 843 843
785 783 780 782 777 780 782 783 803 806 807 808 788 777 773 774 777 776 776 776 775 771 771 773 775 776 777 780 779 785 792 787 784 788 791 793 795 796 798 799 799 803 804 806 808 809 811 812 814 816 817 819 820 821 822 822 823 824 825 826 827 828 829 830 831 832 832 833 834 835 835 836 837 837 838 839 839 839 840 840 841 841 842 842 842 843 843 843 843 843 843 843 843 844 844 844 844
784 783 781 781 783 783 787 793 799 803 808 801 791 778 769 775 776 777 776 774 773 772 775 776 779 776 777 787 780 783 791 786 785 787 790 792 793 795 797 798 801 803 804 806 808 809 810 812 814 815 817 818 820 821 821 822 823 824 825 826 827 828 829 830 831 832 832 833 834 835 835 836 837 838 838 839 839 840 840 841 841 842 842 843 843 843 843 844 844 844 844 844 844 844 844 844 844
783 783 781 781 789 789 790 795 792 798 801 789 789 779 768 772 774 779 776 774 774 774 776 776 783 777 775 782 777 785 791 786 785 785 789 791 791 795 796 798 801 803 805 806 808 810 810 812 813 815 817 818 820 821 822 822 823 824 825 826 827 828 829 830 831 831 833 833 834 835 835 836 837 838 838 839 840 840 841 841 842 842 842 843 843 844 844 844 844 844 844 844 844 844 844 845 845
783 782 778 779 785 783 792 801 795 794 786 776 784 778 769 770 773 778 777 776 774 774 776 776 781 780 780 778 776 784 785 785 786 785 787 789 791 794 796 798 801 803 805 806 808 809 810 812 813 815 816 818 819 820 822 822 823 824 825 826 827 828 829 830 831 832 832 833 834 834 835 836 837 838 838 839 840 840 841 841 842 842 843 843 843 844 844 844 844 844 844 844 845 844 845 845 845
785 785 779 783 785 783 799 805 796 791 777 769 776 775 770 770 772 777 780 781 780 777 777 777 776 781 786 779 781 784 780 783 783 785 787 789 792 794 796 798 800 803 805 807 808 808 810 811 812 815 816 818 819 820 822 822 823 824 825 826 827 828 829 830 831 832 832 833 834 834 835 836 837 838 838 839 840 840 841 841 842 842 843 843 843 844 844 845 845 845 845 845 845 844 845 845 845
786 788 783 791 795 791 800 801 792 786 776 768 770 772 769 769 771 776 781 782 784 781 780 779 775 786 787 777 787 787 781 783 783 786 787 789 792 794 797 798 800 802 805 807 807 808 810 811 813 814 816 817 819 820 821 822 823 824 825 826 827 828 829 830 830 831 832 833 833 834 835 836 837 837 838 839 840 840 841 842 842 842 843 843 843 844 844 845 845 845 845 845 845 845 845 845 845
784 788 788 795 801 798 798 796 789 779 773 769 770 772 768 767 769 775 780 780 781 781 781 779 777 788 786 779 790 787 783 785 784 787 788 791 793 794 797 798 800 801 804 806 806 808 809 811 813 814 816 817 818 820 821 822 823 824 825 826 827 828 829 830 830 831 832 833 833 834 835 835 836 837 838 839 840 840 841 842 842 843 843 843 843 844 844 844 845 845 845 845 845 845 845 845 845
786 787 790 796 800 804 802 794 786 776 769 766 769 771 768 768 770 773 777 779 779 779 779 775 778 785 783 785 791 785 785 786 785 789 790 792 793 795 796 798 800 801 804 805 806 808 809 811 812 814 815 817 818 819 821 822 823 824 825 826 827 828 829 829 830 831 831 833 833 834 835 835 836 837 838 838 839 840 841 841 842 842 843 843 843 844 844 844 845 845 845 845 845 845 845 845 845
793 788 788 800 805 808 805 792 784 775 766 765 767 767 768 768 771 773 774 776 776 778 779 777 782 783 781 788 790 785 785 786 786 789 791 793 794 796 796 798 799 801 804 804 806 807 809 811 812 814 815 816 818 819 821 822 823 824 825 826 827 827 828 829 830 831 831 832 833 834 835 835 836 836 837 838 839 840 840 841 842 842 842 843 843 844 844 844 844 844 845 845 845 845 844 845 845
799 793 790 805 808 803 797 790 787 778 769 769 771 768 767 768 773 776 775 777 776 779 779 779 781 779 783 789 789 785 784 786 787 789 791 793 795 796 797 798 799 801 803 804 805 806 808 810 812 814 815 816 817 819 820 821 823 823 824 825 826 827 827 829 829 830 831 832 833 834 834 835 836 836 837 838 839 839 840 841 841 842 842 843 843 843 843 843 844 844 845 844 844 844 844 844 844
798 796 797 805 801 797 794 791 789 782 776 772 771 768 766 770 774 774 774 776 776 780 778 774 774 776 785 788 787 785 785 786 787 789 791 793 795 796 798 798 800 801 803 804 805 806 808 809 811 813 814 816 817 818 820 821 822 823 824 825 826 827 827 828 828 830 830 831 832 833 834 834 835 836 837 837 838 839 839 840 840 841 841 842 842 842 842 843 843 843 844 844 844 843 843 843 843
794 792 797 803 796 796 796 794 791 789 786 774 769 767 765 770 771 769 772 777 778 778 774 768 769 778 785 787 790 787 785 786 787 790 791 794 795 796 798 799 800 801 802 804 805 806 807 809 810 812 813 815 816 817 819 820 821 822 823 824 825 826 827 827 828 829 829 830 831 832 833 834 834 835 836 837 837 838 839 839 840 840 840 841 841 841 842 842 842 842 843 843 843 843 843 843 842
791 790 794 802 800 798 794 794 793 794 792 778 772 768 767 769 767 769 772 778 779 771 769 769 769 780 784 786 791 786 783 786 787 790 791 794 795 796 798 798 800 800 802 804 805 806 806 808 809 811 812 814 815 816 818 819 820 821 822 823 824 825 826 826 827 828 828 829 830 831 832 833 834 834 835 836 837 837 838 839 839 839 840 840 840 840 841 841 841 841 842 842 842 842 842 842 842
786 789 796 803 804 802 795 790 791 795 791 778 773 769 773 771 766 772 771 772 777 770 771 774 772 777 781 782 785 782 783 786 787 790 792 794 795 797 798 798 801 800 802 804 805 806 806 808 808 810 811 812 814 815 816 817 819 820 821 822 823 824 824 825 826 827 827 828 829 830 831 832 833 833 834 835 836 836 837 837 838 838 839 839 839 839 840 840 840 840 840 841 841 841 841 841 841
783 791 802 806 803 800 792 788 790 794 788 778 774 771 776 776 769 771 767 768 775 774 773 774 772 773 777 779 780 780 783 785 787 790 791 794 795 796 798 798 800 800 801 803 804 806 806 807 808 809 810 812 813 814 816 816 818 819 820 821 822 823 823 824 825 825 826 827 828 828 829 830 831 832 833 834 834 835 835 836 836 837 837 838 838 838 839 839 839 839 840 840 840 840 840 840 840
787 795 804 805 799 793 785 782 782 785 784 777 774 773 775 777 774 770 771 774 775 776 775 773 773 773 775 777 778 780 783 784 786 789 790 792 794 795 797 798 799 800 801 802 804 805 806 806 807 808 809 811 812 813 814 815 816 817 819 820 821 821 822 823 823 824 825 826 827 827 828 829 830 831 831 832 832 833 833 834 835 835 836 836 837 837 837 838 838 838 839 839 839 839 839 839 838
790 795 800 799 790 781 775 775 776 781 783 775 772 772 773 774 772 771 777 780 777 779 779 775 777 778 778 778 779 781 781 784 785 787 789 790 792 794 795 797 798 799 799 801 802 803 805 806 807 808 808 809 811 812 813 814 815 816 817 818 819 820 821 821 822 823 824 824 825 826 827 827 828 829 830 830 830 831 831 832 833 833 834 834 835 836 836 836 837 837 837 837 837 837 837 837 837
788 792 799 792 779 776 773 773 774 777 777 773 772 772 773 771 769 772 777 779 778 780 779 777 780 779 780 779 778 780 781 782 783 785 787 788 790 791 793 794 795 797 798 799 801 802 803 804 805 807 808 809 810 811 812 813 813 815 816 817 818 819 819 820 821 821 822 823 824 824 825 826 827 827 828 829 829 829 830 830 831 832 832 833 833 834 834 834 835 835 835 836 836 836 836 835 835
789 788 794 784 773 777 774 770 770 770 769 771 772 774 777 771 767 772 775 780 781 776 772 771 774 773 776 778 777 779 780 781 782 783 784 786 788 789 790 791 793 794 796 797 799 800 801 802 804 805 807 807 809 810 811 812 812 814 814 815 816 817 818 818 819 820 820 821 822 823 824 824 825 826 827 828 828 828 828 829 829 830 830 830 831 831 832 832 832 833 833 833 833 833 833 833 833
795 786 783 778 773 776 771 768 771 770 769 772 773 777 778 770 769 772 774 782 779 771 765 763 765 765 767 772 775 777 778 780 780 781 782 783 785 786 788 789 791 792 794 795 796 797 799 800 802 803 805 806 807 808 809 811 811 812 813 814 815 815 816 817 818 818 819 820 821 822 822 823 824 825 825 826 826 827 827 827 827 828 828 828 829 828 829 830 830 830 830 831 831 831 831 831 831
802 791 779 775 773 774 769 769 774 772 773 775 774 774 772 773 776 771 772 776 771 764 761 760 761 759 762 768 772 775 777 778 778 779 779 781 782 783 785 786 788 790 791 793 794 795 796 798 800 801 802 804 805 806 808 809 810 811 812 813 814 814 815 815 816 817 818 818 819 820 821 822 822 823 824 824 825 825 825 825 825 826 826 826 826 826 827 827 828 828 828 828 829 829 829 829 829
800 794 781 776 773 772 769 770 774 773 776 774 771 773 773 777 777 770 770 769 763 762 760 760 761 760 763 768 771 773 774 776 776 777 778 778 779 781 782 784 785 787 789 791 792 793 794 795 797 798 799 801 802 804 806 807 808 809 810 811 812 813 813 814 815 816 816 817 817 818 819 820 820 821 821 822 823 823 823 823 824 824 824 824 824 824 825 825 826 826 826 826 827 827 827 827 827
792 788 780 776 774 770 768 770 772 774 776 773 772 776 775 774 772 771 771 766 762 761 760 761 762 763 765 767 770 771 772 773 774 775 776 777 778 779 781 781 783 784 785 788 789 791 792 793 795 796 797 798 799 801 803 804 805 806 808 808 809 810 811 812 813 814 814 815 815 815 816 817 818 819 819 820 821 821 821 822 822 822 822 823 823 823 823 823 823 824 825 825 825 825 825 825 825
782 781 778 777 774 770 769 771 771 773 774 773 776 778 775 770 771 773 769 764 762 760 761 762 763 766 766 767 768 769 770 771 772 773 774 776 777 778 778 779 780 781 782 784 786 788 789 791 793 794 795 796 797 798 800 801 802 804 805 806 807 808 809 810 811 812 812 813 813 813 814 814 815 816 817 817 818 818 819 819 820 820 821 821 821 821 821 822 822 822 823 823 823 823 823 823 823
774 775 776 776 774 769 769 770 771 774 773 773 777 779 775 769 773 777 767 761 761 760 762 762 763 767 766 766 766 766 768 768 769 771 772 774 775 775 776 777 778 779 781 782 783 785 787 788 790 791 793 794 795 796 797 798 800 801 802 803 804 805 807 808 808 809 810 810 810 811 811 811 812 813 814 815 815 816 816 817 817 818 818 818 819 819 819 820 820 820 820 821 821 821 821 821 821
773 774 777 776 774 771 768 769 771 774 774 772 774 777 774 771 774 774 766 759 759 761 762 761 763 765 765 765 765 765 765 766 767 768 770 771 772 773 774 775 776 777 779 779 781 783 785 786 787 789 791 792 793 794 794 796 797 798 800 801 801 803 804 805 806 806 807 807 808 809 809 809 810 811 812 812 813 814 814 814 815 815 815 816 816 817 817 817 817 818 818 819 819 819 819 819 819
775 776 783 781 777 776 771 769 771 774 776 770 772 781 779 774 773 768 763 760 760 761 762 760 761 762 763 763 763 763 763 764 765 766 767 768 769 771 772 773 774 775 776 778 779 780 782 783 785 787 788 790 790 791 792 794 795 796 798 798 799 800 801 802 802 803 803 804 805 805 806 806 807 808 809 809 810 811 812 812 812 812 813 813 814 815 815 815 815 816 816 817 817 817 817 817 817
778 779 786 787 788 784 773 770 771 773 774 767 775 792 786 773 768 763 760 760 761 764 763 761 761 760 760 761 761 762 761 762 763 763 765 766 768 768 770 771 772 773 775 777 778 778 779 781 783 784 786 787 788 789 790 791 793 794 795 796 797 797 798 798 799 800 800 801 802 802 803 804 804 805 806 807 808 808 809 810 810 810 811 811 812 812 813 813 813 813 814 815 815 815 815 815 815
782 784 786 791 796 788 772 770 771 773 771 764 776 794 785 770 764 758 756 756 760 763 762 761 760 759 758 758 759 760 759 760 760 761 763 764 765 766 767 769 770 772 773 774 775 776 777 779 780 781 782 784 785 787 788 789 790 791 793 794 795 795 795 796 796 797 797 798 799 799 800 801 801 801 802 804 805 805 806 807 807 808 809 809 810 810 811 811 811 811 812 813 813 813 812 812 812
785 793 794 791 794 787 773 767 767 771 769 764 776 789 781 770 763 756 753 753 756 760 760 759 759 758 757 756 757 758 757 757 758 759 761 762 763 764 765 766 768 770 771 772 773 775 776 776 777 778 779 781 781 783 784 786 787 788 790 791 792 793 793 793 793 794 795 796 797 797 797 797 798 799 799 800 802 802 803 803 804 805 806 807 807 808 808 808 808 809 809 810 810 810 810 809 809
786 792 796 790 789 787 778 768 761 764 767 765 771 780 777 768 761 755 752 752 754 757 757 756 756 755 755 755 755 755 755 755 756 757 758 759 761 761 762 764 766 767 768 770 771 773 774 775 776 776 777 777 778 780 781 782 784 785 786 787 789 790 790 790 791 792 793 793 794 794 794 794 795 796 796 797 798 799 799 800 801 802 803 804 804 805 805 805 806 806 806 807 807 807 807 807 806
790 788 792 788 784 783 780 771 761 760 765 766 767 772 772 766 760 756 753 752 753 755 755 754 753 753 753 753 753 753 753 754 754 753 755 756 757 759 760 761 763 764 766 767 769 770 771 773 774 774 775 776 777 777 778 779 780 782 783 784 785 786 787 787 788 789 790 790 791 791 792 791 792 792 793 794 795 795 796 797 798 799 800 800 801 801 802 802 803 803 803 804 804 804 804 804 803
790 788 789 786 782 781 779 773 762 758 761 764 767 770 769 766 762 759 754 752 753 753 753 753 753 753 753 752 752 752 752 752 751 750 751 753 754 756 758 759 760 762 763 765 766 767 769 771 771 772 773 774 775 776 777 778 778 780 780 781 782 783 783 784 785 785 786 787 787 788 789 789 789 789 790 791 791 792 793 794 795 796 797 797 798 798 799 799 799 800 800 801 801 801 801 801 801
788 784 783 783 782 779 774 769 761 757 762 765 768 770 768 766 763 760 756 753 753 753 751 753 753 753 752 752 751 751 751 750 748 747 749 750 751 752 754 756 757 759 761 762 764 765 766 767 768 770 771 772 773 775 776 776 777 777 778 779 779 778 779 780 781 781 781 782 783 784 785 785 785 785 786 787 788 788 789 790 791 792 793 794 794 794 794 794 795 796 797 798 798 798 798 798 799
788 786 786 784 783 780 770 765 759 756 766 768 765 767 765 762 760 757 756 753 753 754 752 753 753 753 752 751 750 749 749 748 745 746 747 748 749 750 751 753 755 756 758 759 760 761 762 763 765 765 767 768 770 771 772 772 773 774 774 774 773 773 774 775 776 776 777 777 778 779 780 781 781 781 782 782 783 785 785 786 787 788 789 790 789 789 790 791 792 793 794 795 795 795 795 795 797
787 788 791 790 788 785 775 769 763 758 770 772 765 767 765 759 757 755 754 754 753 752 752 752 750 750 750 750 750 748 747 745 744 745 745 746 748 748 750 751 752 753 754 756 757 757 758 759 761 761 763 764 765 766 767 767 768 768 769 768 769 770 770 771 771 772 773 773 774 775 776 777 777 778 778 778 779 780 781 782 783 783 784 785 786 786 787 788 789 790 791 791 791 792 792 792 794
787 788 792 794 790 787 781 775 769 765 774 777 771 772 768 759 756 754 753 753 751 748 748 748 747 748 747 747 747 746 746 745 745 745 744 745 746 747 748 749 750 750 751 752 753 754 755 756 756 757 758 758 759 760 761 762 762 763 764 765 766 767 767 768 768 769 770 771 771 772 772 773 774 774 774 775 775 776 777 777 778 779 780 781 782 783 784 785 785 786 786 787 787 788 789 789 790
786 787 793 794 788 791 791 781 774 771 773 775 774 774 769 762 758 753 751 751 749 747 744 743 743 744 743 743 743 743 744 745 744 744 743 743 744 744 745 746 746 747 747 748 749 749 750 751 751 752 753 753 753 754 755 756 758 760 761 763 764 765 766 766 767 767 768 767 768 768 769 769 769 770 770 770 770 771 772 773 774 775 775 776 778 778 779 779 780 781 782 783 784 785 784 784 786
784 784 788 789 785 788 790 783 778 777 774 772 777 783 773 765 765 757 751 750 747 745 743 742 741 740 740 739 739 739 740 741 742 741 740 740 740 740 741 742 742 743 743 744 744 745 745 745 746 747 748 749 749 750 750 752 754 756 758 760 762 763 764 764 764 763 763 763 763 763 763 764 765 765 766 766 766 766 767 767 769 770 771 772 773 773 773 774 775 776 777 778 779 779 779 780 782
784 780 779 780 780 781 782 782 783 788 785 774 781 794 778 761 763 758 751 750 745 741 741 740 740 738 738 738 737 737 736 737 738 738 738 737 736 737 737 737 738 738 738 738 739 740 741 742 743 743 744 745 746 746 747 749 750 752 753 754 756 757 758 757 756 755 756 757 756 756 757 759 761 761 762 763 763 763 763 763 764 765 766 768 768 769 769 770 771 771 772 774 774 774 776 778 777
784 774 770 773 776 779 780 781 787 796 792 775 778 795 782 761 758 752 747 748 742 739 738 737 737 736 736 735 734 734 734 734 735 734 734 734 733 733 733 733 733 733 733 734 734 736 737 738 738 739 740 740 741 742 743 745 746 747 748 747 747 748 749 748 748 749 750 750 751 752 754 755 756 757 757 758 759 760 760 760 761 761 762 763 764 765 764 765 765 766 768 769 769 771 773 773 772
781 767 767 773 776 779 779 782 790 793 789 782 783 794 790 775 762 749 745 746 741 737 737 734 734 733 731 731 730 730 730 730 731 731 731 731 730 730 730 730 729 729 730 730 731 731 732 733 734 735 736 737 737 739 740 740 741 742 743 743 743 743 743 742 743 745 746 747 748 749 750 751 752 752 753 754 754 755 756 757 757 758 758 758 759 760 759 760 761 762 764 765 766 767 768 767 768
775 766 768 772 774 777 779 786 791 790 792 793 789 792 794 779 760 751 747 747 744 738 735 733 730 729 727 726 725 724 725 724 726 727 727 727 726 725 725 726 726 726 727 727 727 728 729 729 730 731 733 734 735 736 737 737 737 738 739 739 740 740 740 740 741 742 743 744 744 744 745 746 747 747 748 749 750 751 751 752 753 754 754 754 754 754 755 756 757 757 759 760 760 761 762 763 764
766 766 769 770 774 777 782 789 793 793 794 793 786 787 791 772 752 752 751 748 746 738 733 731 727 726 724 722 721 720 719 720 721 722 722 721 721 721 722 722 723 723 723 724 724 725 726 726 727 728 728 730 731 732 733 733 734 734 735 736 736 737 737 738 739 739 739 739 739 740 740 741 741 742 743 744 745 746 747 747 748 748 748 749 750 750 751 752 752 752 753 754 755 756 758 759 759
762 770 773 775 778 780 786 791 794 794 787 782 777 776 783 770 746 745 746 739 738 734 731 728 723 722 721 718 718 716 716 716 717 718 717 717 717 718 719 719 719 719 720 720 720 721 722 723 724 724 725 727 728 728 729 729 729 730 730 731 732 732 733 734 734 734 734 735 734 734 735 735 736 736 736 737 739 740 742 742 743 743 744 745 746 746 746 747 747 747 748 750 751 752 753 754 755
769 778 780 783 786 786 792 796 798 794 779 770 767 766 778 771 744 736 735 727 726 727 726 724 721 719 717 714 714 712 712 712 713 714 714 715 716 716 716 716 716 717 717 717 717 717 719 720 721 721 722 724 724 725 725 725 726 726 726 727 727 727 728 728 728 728 729 729 729 729 730 730 730 731 731 732 733 734 735 736 737 738 739 739 739 740 741 742 743 744 745 746 747 747 748 749 750
773 781 783 789 792 790 793 792 789 786 772 760 758 763 772 762 739 733 731 723 722 721 719 719 717 716 714 712 711 709 709 709 710 712 712 713 714 713 713 713 713 714 714 715 715 715 716 717 718 718 719 720 721 722 722 723 723 723 723 723 723 723 724 724 724 724 725 725 725 725 726 726 726 726 727 727 727 728 729 730 731 731 731 731 732 733 735 737 739 740 740 741 742 743 743 744 745
770 776 782 788 790 790 791 784 779 777 767 755 754 762 766 754 735 728 726 723 722 719 716 715 714 714 712 710 708 707 707 707 708 708 709 710 710 710 710 710 711 711 712 712 713 713 714 714 715 715 716 717 718 718 719 719 719 719 720 719 720 720 720 720 720 720 721 721 722 722 722 722 722 722 722 722 722 724 724 724 725 725 725 726 727 728 730 732 734 735 736 737 737 738 739 739 740
764 764 772 778 778 781 780 775 773 770 761 753 755 761 758 745 727 714 713 715 715 713 711 711 712 710 709 708 707 707 706 706 706 705 706 706 706 707 707 707 708 709 710 710 711 711 712 712 712 713 713 714 714 715 715 716 716 716 716 716 716 717 717 717 717 717 717 718 718 718 718 718 718 717 717 718 719 719 719 719 720 721 721 722 723 724 726 727 729 730 731 732 733 734 735 735 735
765 761 771 775 767 765 766 764 760 761 762 756 753 751 736 723 713 704 705 707 707 708 706 707 708 705 706 708 706 706 705 704 704 704 705 705 704 704 704 705 706 707 708 708 709 709 709 710 710 710 711 711 711 712 712 712 712 713 713 713 713 714 714 714 713 714 714 714 714 714 713 713 713 713 714 714 715 715 715 715 716 716 717 719 719 721 722 723 724 725 726 728 728 729 730 730 731
764 766 772 767 759 760 766 766 758 761 768 757 746 742 730 722 715 705 706 708 706 707 704 703 703 702 703 704 703 704 704 702 702 702 702 703 702 702 702 702 704 705 706 706 707 708 708 708 709 709 709 709 709 709 709 710 710 710 710 710 710 710 711 710 710 710 710 711 711 710 710 710 710 710 710 710 711 711 711 711 711 712 713 714 715 716 718 719 720 721 721 723 723 725 725 725 726
757 767 766 759 765 771 773 773 766 767 770 753 741 742 738 737 727 708 707 712 708 706 703 700 700 699 700 700 699 701 700 699 699 699 700 700 700 701 700 701 702 703 704 705 706 706 707 707 707 707 707 707 707 706 706 707 707 707 707 707 707 707 707 707 707 707 707 707 707 707 707 706 706 707 707 707 707 707 707 707 707 707 708 709 710 711 712 714 716 716 717 718 719 720 721 721 722
754 762 760 759 770 772 771 773 768 767 768 754 743 741 738 737 728 713 712 713 708 705 702 700 699 698 697 698 697 697 697 697 697 697 698 698 699 699 700 701 702 703 704 705 706 706 706 706 706 706 705 704 704 704 704 704 704 704 704 704 704 704 704 704 704 704 704 704 704 703 703 703 703 703 703 703 703 703 703 703 702 703 703 704 705 706 708 709 711 712 713 714 714 716 716 717 718
758 765 764 762 764 762 763 766 761 761 763 755 747 742 734 727 719 715 713 709 706 705 702 700 699 696 695 694 693 693 694 695 695 696 696 697 699 700 701 702 703 704 705 705 706 705 705 705 704 704 703 702 702 701 701 701 701 701 701 701 701 701 701 701 701 701 701 700 700 700 699 699 699 699 699 699 699 699 699 699 698 698 699 699 701 702 703 705 706 707 707 708 709 711 712 712 713
763 769 768 767 767 764 763 763 758 759 762 757 751 744 730 714 707 709 709 704 703 703 701 700 699 697 696 694 693 694 695 697 698 698 699 700 702 703 703 704 704 705 705 705 705 704 704 704 703 702 702 701 700 699 699 699 698 699 699 698 698 698 698 697 697 697 697 696 696 695 695 695 695 695 695 696 695 695 695 695 694 694 694 695 696 697 698 700 700 701 702 704 705 706 707 707 709
762 766 762 762 764 764 765 762 755 756 758 754 750 746 730 710 702 703 703 702 703 702 702 702 700 699 700 700 701 701 700 701 701 702 703 703 703 704 704 705 705 705 705 704 704 703 702 702 701 701 700 699 698 697 697 696 696 696 696 695 695 694 694 694 694 694 693 692 692 691 691 691 691 691 692 691 691 691 691 691 690 690 690 691 691 692 694 695 695 696 697 699 700 701 701 702 703